Content
SEND FEEDBACK

Daily
Averages
Monthly
Summary
United States of America

DEDEDO, GUAM


Home > North America > United States > Guam
Elevation: 111 meters     Latitude: 13 33N     Longitude: 144 49E

WEATHER
 
SELECT A DAY
Number of Records: 209,106;   Date Range: 1/1/95 - 8/12/14
 
SHARE

PRINT THIS DATA

[ ← Previous Day ]
WEATHER ALMANAC - 16 JANUARY, 2013
[ Next Day → ]
[ °F ]   °C
Weather ElementAverageHighLow
Temperature26.9 °C30.6 °C (12:54 pm)23.9 °C (5:54 am)
Dewpoint22.7 °C24.4 °C (10:54 pm)21.1 °C (2:54 am)
Humidity78.2 %96 % (11:54 pm)59 % (1:54 pm)
Barometer1012.2 hPa1013.5 hPa (8:54 am)1010.2 hPa (1:54 pm)
Wind Speed13 km/h24.1 km/h (2:54 pm)
Wind Gust35.2 km/h (10:54 am)
Weather ElementAverage
Visibility15.8 km
Wind DirectionENE (61.5 °)

Weather ElementTotal
Precipitation0.51 mm
Cooling Degree Days8.9 (Base 18.3)
Growing Degree Days17.3 (Base 10)
Averaged from 26 records on 16 January, 2013
WEATHER CONDITIONS BREAKOUT
WIND DIRECTION BREAKOUT
WEATHER BY HOUR - 16 JANUARY, 2013
[ °F ]   °C
Local TimeTemperatureDewpointHumidityBarometerVisibilityWind DirectionWind SpeedGust SpeedPrecipitationEventsConditions
1:54 AM25 °C21.7 °C82 %1011.5 hPa16.1 kmENE (70°)7.4 km/hClear
2:54 AM25 °C21.1 °C79 %1011.2 hPa16.1 kmENE (70°)13 km/hClear
3:54 AM25 °C21.1 °C79 %1011.5 hPa16.1 kmENE (70°)11.1 km/hPartly Cloudy
4:54 AM25 °C21.1 °C79 %1011.9 hPa16.1 kmENE (60°)9.3 km/hPartly Cloudy
5:54 AM23.9 °C21.7 °C87 %1012.2 hPa16.1 kmNE (50°)7.4 km/hPartly Cloudy
6:54 AM23.9 °C21.7 °C87 %1012.5 hPa16.1 kmENE (60°)9.3 km/hScattered Clouds
7:54 AM26.1 °C22.2 °C79 %1013.2 hPa16.1 kmNE (50°)9.3 km/hScattered Clouds
8:54 AM27.8 °C22.2 °C71 %1013.5 hPa16.1 kmENE (70°)11.1 km/hClear
9:54 AM28.9 °C21.7 °C65 %1013.2 hPa16.1 kmEast (80°)18.5 km/hPartly Cloudy
10:54 AM30 °C21.7 °C61 %1012.5 hPa16.1 kmENE (70°)18.5 km/h35.2 km/hScattered Clouds
11:54 AM30 °C21.7 °C61 %1011.9 hPa16.1 kmENE (60°)18.5 km/hScattered Clouds
12:54 PM30.6 °C22.2 °C61 %1010.8 hPa16.1 kmEast (80°)14.8 km/h29.6 km/hScattered Clouds
1:54 PM30.6 °C21.7 °C59 %1010.2 hPa16.1 kmEast (80°)20.4 km/h35.2 km/hScattered Clouds
2:54 PM29.4 °C22.8 °C67 %1010.2 hPa16.1 kmNE (50°)24.1 km/hMostly Cloudy
3:54 PM28.9 °C22.8 °C69 %1010.5 hPa16.1 kmENE (60°)22.2 km/hMostly Cloudy
4:54 PM27.8 °C23.3 °C76 %1011.2 hPa16.1 kmENE (70°)16.7 km/h0 mmOvercast
5:54 PM27.8 °C23.3 °C76 %1011.5 hPa16.1 kmENE (60°)14.8 km/hPartly Cloudy
6:54 PM26.7 °C23.9 °C85 %1012.2 hPa16.1 kmENE (60°)9.3 km/hClear
7:54 PM26.7 °C23.9 °C85 %1012.5 hPa16.1 kmNE (50°)9.3 km/hPartly Cloudy
8:54 PM26.1 °C23.3 °C84 %1012.9 hPa16.1 kmNE (50°)9.3 km/hClear
9:54 PM26.1 °C23.3 °C84 %1012.9 hPa16.1 kmENE (60°)7.4 km/hPartly Cloudy
10:28 PM26 °C24 °C89 %1013.2 hPa16.1 kmNE (50°)5.6 km/hMostly Cloudy
10:38 PM26 °C24 °C89 %1013.2 hPa6.4 kmENE (70°)14.8 km/h0 mmRainHeavy Rain
10:54 PM25.6 °C24.4 °C93 %1012.5 hPa16.1 kmNE (50°)14.8 km/h0.51 mmOvercast
11:05 PM26 °C24 °C89 %1013.2 hPa16.1 kmNE (50°)11.1 km/hMostly Cloudy
11:54 PM25 °C24.4 °C96 %1012.5 hPa16.1 kmNE (50°)9.3 km/hClear
Hourly data recorded from PGUM, located 0 kilometers away from Dededo, Guam







STORIES FROM OUR PARTNERS